STARLINK-35660 (67003 NORAD) Tracking and Keplerian Element Data

This shows tracking and keplerian element data for the satellite.

Feedback or suggestion? Click here.




ElementValue
Catalog67003
NameSTARLINK-35660
Epoch Orbit138
Epoch Day354.25003472
Epoch Year2025
RAAN301.9911
Inclination69.994
Eccentricity0.000387
Argument of Perigee271.7852
Mean Anonmoly292.9479
Mean Motion15.91909965
Decay Rate-0.01061604
L11 67003U 25293A 25354.25003472 -.01061604 33720-3 -32144-2 0 9993
L22 67003 69.9940 301.9911 0003870 271.7852 292.9479 15.91909965 1387



Live tracking and technical data element details for STARLINK-35660 (NORAD 67003). STARLINK-35660 can be tracked NOW for your location showing map with azimuth and elevation plus other details from your city location.







IsCatalogInMostPopularTable: catalog: 67003, numindb: 79
Update: records affected: 1



GetName: 67003 STARLINK-35660

Hit Count: updated at: Thu, 21 May 2026 10:03:31 GMT